{"data":{"norad_id":65563,"intl_designator":"2025-202A","name":"YAOGAN-45","alt_names":[],"object_type":"PAYLOAD","status":"ACTIVE","operator":null,"country":"PRC","launch_date":"2025-09-09","launch_site_code":"WSC","launch_vehicle":null,"mission":null,"orbit_class":"UNKNOWN","rcs_meters":null,"size_class":null,"mass_kg":null,"dimensions":null,"purposes":[],"wikipedia_slug":null,"has_3d_model":false,"image_url":null,"decayed_at":null,"tle_current":{"epoch":"2026-09-20T01:48:02.590272Z","epoch_age_seconds":189240,"freshness":"STALE","line1":"1 65563U 25202A   26263.07502998 -.00000018  00000+0  00000+0 0  9993","line2":"2 65563  19.9306 159.0164 0007555 357.2135   2.8120  5.31204397 17138","mean_motion":5.31204397,"eccentricity":0.0007555,"inclination_deg":19.9306,"raan_deg":159.0164,"arg_perigee_deg":357.2135,"mean_anomaly_deg":2.812,"bstar":0,"rev_number":1713,"period_min":271.08209347145,"perigee_km":7486.2019413594,"apogee_km":7507.1667964478,"semimajor_km":13874.821368904,"source":"CELESTRAK","updated_at":"2026-09-21T09:00:15.427172Z"}}}